SCP
0 0 0 0 0 0 0 0 0 0 0 0 0 0 0 0 0 0 0 0 0 0 0 0 0 0 0 0 0 0 0 0 0 0 0 0 0 0 0 0 0 0 0
0 0 0 0 0 0 0 0 0 0 0 0 0 0 0 0 0 0 0 0 0 0 0 0 0 0 0 0 0 0 0 0 0 0 0 0 0 0 0 0 0 0 0
0 0 0 0 0 0 0 0 0 0 0 0 0 0 0 0 0 0 0 0 0 0 0 0 0 0 0 0 0 0 0 0 0 0 0 0 0 0 0 0 0 0 0
0 0 0 0 0 0 0 0 0 0 0 0 0 0 0 0 0 0 0 0 0 0 0 0 0 0 0 0 0 0 0 0 0 0 0 0 0 0 0 0 0 0 0
0 0 0 0 0 0 0 0 0 0 0 0 0 0 0 0 0 0 0 0 0 0 0 0 0 0 0 0 0 0 0 0 0 0 0 0 0 0 0 0 0 0 0
0 0 0 0 0 0 0 0 0 0 0 0 0 0 0 0 0 0 0 0 0 0 0 0 0 0 0 0 0 0 0 0 0 0 0 0 0 0 0 0 0 0 0
0 0 0 0 0 0 0 0 0 0 0 0 0 0 0 0 0 0 0 0 0 0 0 0 0 0 0 0 0 0 0 0 0 0 0 0 0 0 0 0 0 0 0
0 0 0 0 0 0 0 0 0 0 0 0 0 0 0 0 0 0 0 0 0 0 0 0 0 0 0 0 0 0 0 0 0 0 0 0 0 0 0 0 0 0 0
0 0 0 0 0 0 0 0 0 0 0 0 0 0 0 0 0 0 0 0 0 0 0 0 0 0 0 0 0 0 0 0 0 0 0 0 0 0 0 0 0 0 0
0 0 0 0 0 0 0 0 0 0 0 0 0 0 0 0 0 0 0 0 0 0 0 0 0 0 0 0 0 0 0 -0 0 0 0 0 0 0 0 0 0 0 0
0 0 0 0 0 0 0 0 0 0 0 0 0 0 0 0 0 0 0 0 0 0 0 0 0 0 0 0 0 0 0 -0 0 0 0 0 0 0 0 0 0 0 0
0 0 0 0 0 0 0 0 0 0 0 0 0 0 0 0 0 0 0 0 0 0 0 0 0 0 0 0 0 0 0 -0 0 0 0 0 0 0 0 0 0 0 0
0 0 0 0 0 0 0 0 0 0 0 0 0 0 0 0 0 0 0 0 0 0 0 0 0 0 0 0 0 0 0 0 0 0 0 0 0 0 0 0 0 0 0
0 0 0 0 0 0 0 0 0 0 0 0 0 0 0 0 0 0 0 0 0 0 0 0 0 0 0 0 0 0 0 0 0 0 0 0 0 0 0 0 0 0 0
0 0 0 0 0 0 0 0 0 0 0 0 0 0 0 0 0 0 0 0 0 0 0 0 0 -0 -0 -0 0 0 0 0 0 0 0 0 0 0 0 0 0 0 0
0 0 0 0 0 0 0 0 0 0 0 0 0 0 0 0 0 0 0 0 0 0 0 0 0 -0 -0 -0 -0 0 0 0 0 0 0 0 0 0 0 0 0 0 0
0 0 0 0 0 0 0 0 0 0 0 0 0 0 0 0 0 0 0 0 0 0 0 0 0 0 0 0 -0 0 0 0 0 0 0 0 0 0 0 0 0 0 0
0 0 0 0 0 0 0 0 0 0 0 0 0 0 0 0 0 0 0 0 0 0 0 0 0 0 0 0 0 0 0 0 0 0 0 0 0 0 0 0 0 0 0
0 0 0 0 0 0 0 0 0 0 0 0 0 0 0 0 0 0 0 0 0 0 0 0 0 0 0 0 0 0 0 0 0 0 0 0 0 0 0 0 0 0 0
0 0 0 0 0 0 0 0 0 0 0 0 0 0 0 0 0 0 0 0 0 0 0 0 0 0 0 0 0 0 0 0 0 0 0 0 0 0 0 0 0 0 0
0 0 0 0 0 0 0 0 0 0 0 0 0 0 0 0 0 0 0 0 0 0 0 0 0 0 0 0 0 0 0 0 0 0 0 0 0 0 0 0 0 0 0
0 0 0 0 0 0 0 0 0 0 0 0 0 0 0 0 0 0 0 0 0 0 0 0 0 0 0 0 0 0 0 0 0 0 0 0 0 0 0 0 0 0 0
0 0 0 0 0 0 0 0 0 0 0 0 0 0 0 0 0 0 0 0 0 0 0 0 0 0 0 0 0 0 0 0 0 0 0 0 0 0 0 0 0 0 0
0 0 0 0 0 0 0 0 0 0 0 0 0 0 0 0 0 0 0 0 0 0 0 0 0 0 0 0 0 0 0 0 0 0 0 0 0 0 0 0 0 0 0
0 0 0 0 0 0 0 0 0 0 0 0 0 0 0 0 0 0 0 0 0 0 0 0 0 0 0 0 0 0 0 0 0 0 0 0 0 0 0 0 0 0 0
0 0 0 0 0 0 0 0 0 0 0 0 0 0 0 0 0 0 0 0 0 0 0 0 0 0 0 0 0 0 0 0 0 0 0 0 0 0 0 0 0 0 0
Wind_Speed
7 9 18 17 17 16 15 14 14 13 13 13 13 13 13 12 12 12 13 13 13 13 13 14 14 14 14 14 14 14 15 15 15 15 15 15 14 14 14 14 12 7 14
11 11 18 18 17 17 15 14 14 14 13 13 13 12 12 12 12 12 12 12 12 13 13 13 14 13 13 13 13 13 13 13 13 13 13 12 12 13 13 13 12 8 13
14 12 16 18 18 17 16 15 15 14 14 13 13 12 12 12 12 12 11 11 11 12 12 12 12 12 12 12 12 12 12 13 13 13 11 6 7 12 12 12 12 12 12
15 12 13 18 18 18 17 16 15 15 14 13 13 12 12 12 12 11 11 11 11 11 11 11 11 11 11 11 11 11 12 12 12 11 6 5 5 9 11 11 11 11 11
12 11 13 19 19 18 17 16 16 15 14 14 13 12 12 12 12 11 11 11 11 10 10 10 10 10 10 10 10 10 11 11 11 8 5 5 4 8 10 10 10 10 10
11 10 13 20 19 18 18 17 16 15 14 14 13 12 12 12 11 11 11 10 10 10 9 9 9 9 8 8 9 9 10 11 8 5 4 4 3 7 8 8 9 9 9
12 9 12 19 20 19 18 17 16 15 15 14 13 12 12 12 11 11 10 10 9 9 9 9 8 8 8 7 8 8 9 9 5 4 3 3 3 7 7 8 8 8 8
14 12 12 19 19 19 18 17 17 16 15 14 13 13 12 12 11 11 10 9 9 8 8 8 7 7 6 6 6 7 7 7 5 3 2 2 3 6 7 7 7 7 7
13 12 9 11 13 17 18 17 17 16 15 15 14 13 12 12 11 10 10 9 9 8 7 7 6 5 5 5 5 5 6 7 3 1 1 1 3 5 6 6 6 6 6
11 11 9 8 9 9 10 15 15 15 15 14 13 12 11 11 10 10 9 9 8 7 7 6 5 4 3 3 3 4 5 5 2 1 1 0 3 4 5 5 5 5 5
11 9 10 9 9 8 8 12 12 13 13 13 10 12 9 5 5 6 7 9 8 8 6 5 4 3 1 1 2 2 3 2 1 0 1 0 2 2 3 3 3 4 4
15 13 11 11 10 9 9 7 6 6 7 7 6 6 5 4 4 5 8 9 8 7 6 5 4 2 0 1 2 2 1 1 1 1 1 1 1 1 2 2 2 3 3
16 15 13 13 12 11 7 6 5 4 5 6 7 7 5 4 3 3 3 4 4 4 2 2 1 0 0 1 1 0 1 1 1 1 1 2 1 1 0 1 1 1 2
14 16 15 14 12 11 9 7 7 5 5 5 7 7 5 4 4 4 3 3 3 2 2 2 1 2 1 2 2 2 2 1 1 1 2 3 2 2 1 1 1 1 1
15 16 16 15 14 13 10 8 8 7 7 7 6 7 7 6 5 5 4 3 4 3 3 3 2 2 2 2 2 2 2 2 2 2 1 3 3 3 3 3 3 3 3
15 16 16 17 16 14 12 10 9 9 8 7 7 8 9 7 6 6 5 5 4 4 4 4 4 3 2 2 2 2 2 3 2 3 2 2 4 5 4 4 4 5 5
16 16 17 17 16 16 14 12 9 9 9 8 8 9 10 9 8 7 6 5 5 5 5 3 3 2 2 2 2 2 2 3 3 3 3 2 2 5 6 6 6 6 6
14 16 17 16 16 16 14 12 9 9 9 8 8 8 10 11 10 8 6 6 6 5 4 4 3 2 2 2 2 2 2 2 4 4 3 3 3 3 5 8 8 8 8
16 17 17 16 18 17 15 11 10 9 9 8 8 8 10 11 11 8 7 6 6 5 4 4 3 3 3 3 3 3 3 3 4 4 4 5 4 4 3 6 9 9 10
15 16 17 17 17 15 11 8 7 7 8 7 8 9 10 10 11 9 7 7 7 5 4 4 4 3 3 3 2 2 3 4 3 4 5 4 4 5 5 4 4 6 10
13 15 17 16 15 13 11 10 10 10 8 8 8 10 11 10 11 9 7 7 7 6 7 6 4 4 3 2 1 2 3 3 4 4 4 4 4 5 4 5 4 4 4
15 15 16 17 17 16 13 11 9 8 7 7 6 9 11 11 11 10 9 8 8 6 6 6 5 3 3 3 3 1 3 4 3 3 3 4 5 3 4 5 5 5 4
14 16 16 17 17 17 13 8 5 4 3 5 7 8 10 11 11 10 11 9 8 8 8 8 7 7 5 3 4 4 3 4 3 3 3 4 4 3 4 4 5 6 6
14 14 15 16 16 16 14 12 13 11 11 11 8 8 8 11 11 11 11 10 9 8 8 8 8 6 6 4 3 4 4 3 2 3 3 3 3 5 5 4 5 6 6
12 12 13 14 15 15 15 16 15 12 10 6 6 8 9 9 10 11 11 10 10 9 9 8 8 7 6 6 5 3 3 2 3 3 5 4 3 4 4 5 5 5 5
9 10 11 13 14 15 16 16 16 15 11 9 9 10 9 7 8 10 10 10 10 9 9 9 9 9 7 7 5 4 4 4 4 4 6 5 5 4 4 4 5 5 4
Wind_Direction
169 175 163 157 152 146 141 135 132 129 125 122 117 112 108 105 103 98 94 90 87 85 84 82 81 79 79 79 79 77 73 70 68 66 64 64 66 66 64 62 57 46 55
157 168 162 157 152 148 143 138 136 133 129 124 119 117 113 110 108 104 100 95 91 89 87 86 84 83 82 82 81 78 75 74 73 70 63 56 61 65 62 59 57 54 54
152 161 159 157 153 149 145 142 140 136 132 127 125 123 120 115 111 107 105 101 97 93 91 88 87 86 84 83 79 75 74 75 76 69 58 34 40 62 61 58 55 54 54
153 156 157 158 154 151 147 145 144 140 136 132 130 128 125 120 115 112 109 107 103 98 95 91 90 90 87 82 76 74 74 77 76 68 47 30 23 60 60 57 55 53 52
152 154 159 159 156 154 151 149 147 145 142 139 137 134 130 126 121 117 114 112 109 105 100 97 94 92 87 82 76 73 74 76 74 63 45 31 19 56 60 57 52 49 49
152 154 162 161 160 157 155 153 151 150 148 145 143 139 135 130 126 123 120 117 114 111 107 102 98 94 88 82 77 73 75 77 71 56 45 25 11 54 61 58 55 51 50
153 156 165 164 162 161 159 158 156 155 152 150 149 146 142 137 132 129 126 124 121 116 112 108 102 97 91 85 79 76 78 78 73 60 45 17 19 58 64 58 54 52 50
156 159 166 167 165 164 163 162 161 160 157 156 155 152 148 144 141 138 137 133 130 124 119 113 108 101 94 87 79 74 73 74 70 63 40 6 55 64 64 60 55 52 50
157 160 166 168 167 168 167 166 165 164 162 162 161 158 154 151 149 146 145 142 137 131 126 122 117 110 99 85 72 64 67 72 72 66 31 356 64 64 63 59 52 51 49
159 164 166 165 163 165 166 168 168 168 166 166 164 160 159 159 155 153 152 150 147 142 140 135 129 124 107 79 56 55 63 66 67 61 360 359 76 67 62 62 52 52 48
167 171 169 166 164 162 164 171 169 170 170 167 165 163 159 151 149 155 161 163 161 159 159 156 152 150 135 17 6 40 55 63 86 84 284 128 86 74 65 65 56 50 43
177 180 176 173 170 165 171 167 165 168 168 164 161 161 153 153 164 168 177 177 175 175 178 180 182 179 98 344 341 18 64 99 111 224 255 166 118 95 74 63 61 46 36
179 180 180 178 174 172 170 165 168 165 164 166 167 167 163 162 171 174 173 183 184 183 184 203 221 256 230 243 260 227 185 164 176 236 260 217 188 202 128 57 49 29 19
177 184 181 179 177 177 173 173 173 172 175 179 181 175 167 168 175 178 182 187 184 181 187 203 209 228 237 236 216 198 195 189 190 211 243 226 221 244 255 279 288 299 314
183 185 183 181 180 179 176 178 180 182 184 186 184 183 177 176 181 183 190 191 191 187 192 200 209 217 221 223 213 193 200 206 202 206 234 229 231 245 254 263 271 279 286
189 187 183 184 183 180 181 183 184 186 187 187 190 190 185 182 182 184 189 190 195 195 196 195 199 199 209 205 212 206 206 210 209 210 217 234 235 239 249 261 270 276 281
192 187 185 185 183 183 185 186 185 187 186 191 194 192 189 184 183 184 185 189 196 193 190 188 194 188 199 202 220 225 215 214 213 217 217 218 234 242 246 256 265 271 279
191 189 188 186 185 186 187 186 185 186 188 192 192 191 191 188 184 182 185 193 190 181 179 180 184 186 204 207 224 240 233 225 224 223 222 221 222 234 246 250 258 264 273
195 190 188 187 186 188 188 186 185 185 189 191 190 191 192 190 186 183 189 192 182 179 184 187 186 182 199 215 225 240 245 237 233 229 227 227 223 222 227 248 253 258 266
196 192 190 189 187 185 183 180 180 186 191 191 192 194 191 191 188 185 189 189 180 180 189 189 190 191 195 201 225 254 258 252 242 233 232 232 227 226 226 233 247 259 260
193 191 190 189 185 180 181 184 186 193 193 194 196 195 193 192 189 188 190 188 185 191 195 190 182 194 206 170 156 298 294 264 250 243 233 231 233 231 226 229 230 234 256
193 192 191 190 186 186 189 189 189 185 188 192 193 196 196 193 191 193 191 191 191 193 195 193 183 181 198 173 164 184 302 315 286 248 234 230 237 236 237 234 229 230 235
195 193 191 192 189 190 184 173 158 151 160 182 196 199 200 196 195 195 195 193 193 192 200 200 192 186 201 206 185 174 198 241 285 292 251 239 238 235 241 241 236 236 236
201 194 192 190 189 188 181 178 177 185 196 200 196 197 197 198 197 197 195 195 196 197 201 202 197 194 188 206 211 214 210 190 207 285 292 269 250 243 243 245 243 243 240
196 190 190 187 189 186 185 187 188 197 202 191 184 191 199 202 202 200 198 197 199 200 203 201 197 198 197 200 198 193 210 220 211 223 266 278 279 254 243 240 241 245 243
191 187 185 185 189 187 188 190 193 196 192 184 191 196 201 202 204 204 201 201 203 202 202 203 201 201 204 205 205 194 186 194 207 210 240 256 261 261 249 242 240 241 242